{"data":{"norad_id":67115,"epoch":"2026-09-20T23:08:51.391680Z","epoch_age_seconds":38048,"freshness":"FRESH","line1":"1 67115U 25299P   26263.96448370  .00015298  00000+0  56412-3 0  9992","line2":"2 67115  42.9982 145.9517 0001120 261.0654  99.0071 15.27590746 42981","mean_motion":15.27590746,"eccentricity":0.000112,"inclination_deg":42.9982,"raan_deg":145.9517,"arg_perigee_deg":261.0654,"mean_anomaly_deg":99.0071,"bstar":0.00056412,"rev_number":4298,"period_min":94.266085584156,"perigee_km":482.24846959952,"apogee_km":483.78536807734,"semimajor_km":6861.1539188384,"source":"CELESTRAK","updated_at":"2026-09-21T09:00:36.106296Z"}}